This is the latest recevied weather packets stored in our database for station/object WP3XM. If no packets are shown the sender has not sent any weather packets the latest 10 day(s).
| Time | Temp. | Humidity | Pressure | Rain* | Wind** | Luminosity | Snow |
|---|---|---|---|---|---|---|---|
| 1777574010 | 29.44° C | 67% | 1013.3 hPa | 0 mm | - | 751 W/m² | - |
| 1777573709 | 30° C | 64% | 1013.3 hPa | 0 mm | - | 699 W/m² | - |
| 1777573406 | 30° C | 65% | 1013.3 hPa | 0 mm | - | 373 W/m² | - |
| 1777573102 | 30° C | 65% | 1013.4 hPa | 0 mm | - | 914 W/m² | - |
| 1777572799 | 29.44° C | 69% | 1013.4 hPa | 0 mm | - | 1067 W/m² | - |
| 1777572495 | 29.44° C | 68% | 1013.6 hPa | 0 mm | - | 1030 W/m² | - |
| 1777572190 | 28.89° C | 71% | 1013.7 hPa | 0 mm | - | 1104 W/m² | - |
| 1777571885 | 29.44° C | 69% | 1013.6 hPa | 0 mm | - | 379 W/m² | - |
| 1777571581 | 29.44° C | 67% | 1013.9 hPa | 0 mm | - | 451 W/m² | - |
| 1777571278 | 29.44° C | 68% | 1013.8 hPa | 0 mm | - | 461 W/m² | - |
| 1777570974 | 30° C | 68% | 1013.9 hPa | 0 mm | - | 907 W/m² | - |
| 1777570670 | 29.44° C | 68% | 1013.8 hPa | 0 mm | - | 1089 W/m² | - |
| 1777570368 | 29.44° C | 70% | 1013.9 hPa | 0 mm | - | 413 W/m² | - |
| 1777570063 | 29.44° C | 68% | 1013.9 hPa | 0 mm | - | 868 W/m² | - |
| 1777569758 | 28.89° C | 71% | 1013.9 hPa | 0 mm | - | 1147 W/m² | - |
| 1777569454 | 28.89° C | 72% | 1014.1 hPa | 0 mm | - | 868 W/m² | - |
| 1777569152 | 28.89° C | 72% | 1014 hPa | 0 mm | - | 789 W/m² | - |
| 1777568848 | 28.89° C | 73% | 1014.3 hPa | 0 mm | - | 843 W/m² | - |
| 1777568545 | 28.89° C | 73% | 1014.1 hPa | 0 mm | - | 370 W/m² | - |
| 1777568241 | 28.89° C | 74% | 1013.9 hPa | 0 mm | - | 865 W/m² | - |
| 1777567939 | 28.89° C | 72% | 1014.3 hPa | 0 mm | - | 459 W/m² | - |
| 1777567635 | 29.44° C | 70% | 1014.3 hPa | 0 mm | - | 442 W/m² | - |
| 1777567332 | 28.89° C | 72% | 1014.3 hPa | 0 mm | - | 948 W/m² | - |
| 1777567031 | 28.89° C | 74% | 1014.2 hPa | 0 mm | - | 486 W/m² | - |
| 1777566728 | 28.89° C | 72% | 1014.2 hPa | 0 mm | - | 647 W/m² | - |
* Rain latest hour (hover to see other rain measurements)
** Current wind speed in m/s (hover to see current wind gust speed)